Muscle Shoals, AL

10:02 AM CST on December 13, 2019 (GMT -0600)
Northwest Alabama Regional

Weather History for KMSL - October, 2019

Change the Weather History Date:

Wednesday, October 2, 2019

  Actual Average Record
Temperature  
Mean Temperature 85 °F 67 °F  
Max Temperature 100 °F 79 °F 100 °F (2019)
Min Temperature 69 °F 55 °F 34 °F (1984)
Degree Days  
Heating Degree Days 0 2  
Month to date heating degree days 0 4  
Since 1 July heating degree days 0 19  
Cooling Degree Days 20 4  
Month to date cooling degree days 38 8  
Year to date cooling degree days 2396 1810  
Growing Degree Days 34 (Base 50)    
Moisture  
Dew Point 66 °F    
Average Humidity 61    
Maximum Humidity 90    
Minimum Humidity 32    
Precipitation  
Precipitation 0.00 in 0.11 in 1.21 in (1937)
Month to date precipitation 0.00 0.22  
Year to date precipitation 46.52 39.65  
Snow  
Snow 0.00 in - - ()
Month to date snowfall 0.0  
Since 1 July snowfall 0.0  
Since 1 September snowfall 0.0  
Snow Depth 0.00 in    
Sea Level Pressure  
Sea Level Pressure 30.00 in    
Wind  
Wind Speed 3 mph (NW)    
Max Wind Speed 10 mph    
Max Gust Speed 14 mph    
Visibility 10 miles    
Events      
T = Trace of Precipitation, MM = Missing Value Source: NWS Daily Summary

Daily Weather History Graph

Daily Weather History Graph

Search for Another Location

Airport or City:

Astronomy

Oct. 02, 2019 Rise Set
Actual Time 6:45 AM CDT 6:33 PM CDT
Civil Twilight 6:20 AM CDT 6:58 PM CDT
Nautical Twilight 5:51 AM CDT 7:27 PM CDT
Astronomical Twilight 5:21 AM CDT 7:57 PM CDT
Moon 11:01 AM CDT (10/2) 9:37 PM CDT (10/2)
Length of Visible Light 12h 37m
Length of Day
11h 47m
Waxing Crescent, 20% of the Moon is Illuminated
Oct 2
Waxing Crescent
Oct 5
First Quarter
Oct 13
Full
Oct 21
Last Quarter
Oct 27
New

Hourly Weather History & Observations

Time (CDT) Temp. Heat Index Dew Point Humidity Pressure Visibility Wind Dir Wind Speed Gust Speed Precip Events Conditions
12:53 AM 72.0 °F - 66.9 °F 84% 30.00 in 10.0 mi Calm Calm - N/A   Clear
1:53 AM 72.0 °F - 66.9 °F 84% 30.00 in 10.0 mi Calm Calm - N/A   Clear
2:53 AM 71.1 °F - 66.9 °F 87% 29.99 in 10.0 mi Calm Calm - N/A   Clear
3:53 AM 71.1 °F - 66.0 °F 84% 29.99 in 10.0 mi Calm Calm - N/A   Clear
4:53 AM 71.1 °F - 66.0 °F 84% 30.00 in 10.0 mi Calm Calm - N/A   Clear
5:53 AM 69.1 °F - 66.0 °F 90% 30.01 in 10.0 mi Calm Calm - N/A   Clear
6:53 AM 70.0 °F - 66.0 °F 87% 30.04 in 8.0 mi Calm Calm - N/A   Clear
7:53 AM 75.0 °F - 69.1 °F 82% 30.05 in 10.0 mi Calm Calm - N/A   Clear
8:53 AM 82.0 °F 85.5 °F 69.1 °F 65% 30.06 in 10.0 mi Calm Calm - N/A   Mostly Cloudy
9:53 AM 87.1 °F 89.9 °F 66.9 °F 51% 30.06 in 10.0 mi SE 4.6 mph - N/A   Clear
10:53 AM 93.0 °F 96.4 °F 66.9 °F 42% 30.05 in 10.0 mi Variable 4.6 mph - N/A   Clear
11:53 AM 95.0 °F 97.4 °F 64.9 °F 37% 30.04 in 10.0 mi NNW 5.8 mph - N/A   Clear
12:53 PM 97.0 °F 99.3 °F 64.0 °F 34% 30.01 in 10.0 mi Variable 5.8 mph - N/A   Clear
1:53 PM 98.1 °F 99.6 °F 63.0 °F 31% 29.98 in 10.0 mi NW 5.8 mph - N/A   Clear
2:53 PM 97.0 °F 99.3 °F 64.0 °F 34% 29.97 in 10.0 mi NW 6.9 mph - N/A   Clear
3:53 PM 98.1 °F 100.7 °F 64.0 °F 33% 29.95 in 10.0 mi NNW 5.8 mph - N/A   Clear
4:53 PM 97.0 °F 97.8 °F 62.1 °F 31% 29.95 in 10.0 mi WNW 8.1 mph - N/A   Clear
5:53 PM 93.9 °F 95.6 °F 64.0 °F 37% 29.94 in 10.0 mi WNW 5.8 mph - N/A   Clear
6:53 PM 87.1 °F 88.9 °F 64.9 °F 48% 29.96 in 10.0 mi NW 3.5 mph - N/A   Clear
7:53 PM 82.9 °F 85.0 °F 66.0 °F 56% 29.97 in 10.0 mi NNW 4.6 mph - N/A   Clear
8:53 PM 82.0 °F 84.5 °F 66.9 °F 60% 29.97 in 10.0 mi Calm Calm - N/A   Clear
9:53 PM 77.0 °F - 66.9 °F 71% 29.98 in 10.0 mi Calm Calm - N/A   Clear
10:53 PM 75.9 °F - 68.0 °F 76% 29.99 in 10.0 mi Calm Calm - N/A   Clear
11:53 PM 73.9 °F - 66.9 °F 79% 29.98 in 10.0 mi Calm Calm - N/A   Clear